sat.trackr.live / text

‹ back to catalog

GLOBALSTAR M090

NORAD 38044 · 2011-080E

PAYLOAD ACTIVE UNKNOWN

§ Identity

Operator
Country
GLOB
Launch date
2011-12-28
Launch site
TYMSC
Launch vehicle
Mass (kg)
RCS (m²)
4.55

Purposes: comms

External: N2YO · Heavens-Above · Gunter

§ Orbital elements

Epoch: 2026-05-25T04:23:23.938944Z

Period
114.08 min
Inclination
52.0143°
Eccentricity
0.0000654
Mean motion
12.62268561 rev/d
Perigee alt
1,413.1 km
Apogee alt
1,414.1 km
Semi-major
7,791.7 km
B*
7.1734e-5
RAAN
38.4713°
Arg perigee
58.2231°
Mean anomaly
107.6117°
Rev number
66,680

§ Raw data

GLOBALSTAR M0901 38044U 11080E   26145.18291596 -.00000091  00000+0  71734-4 0  99942 38044  52.0143  38.4713 0000654  58.2231 107.6117 12.62268561666806

JSON: /api/v1/satellites/38044 · /tle

For live sub-satellite position, see the globe view (requires WebGL).

§ Visibility from observer

Set your observer location to see the next 7 days of passes ≥ 10°. The values pass through the URL so the page stays shareable.

No JS? Fill the form by hand. The geolocation button needs JavaScript.